Weather History for North Bend, OR

Change the Weather History Date:

Tuesday, August 19, 2014

  Actual Average Record
Temperature  
Mean Temperature 64 °F 59 °F  
Max Temperature 70 °F 66 °F 83 °F (1939)
Min Temperature 57 °F 53 °F 40 °F (1916)
Degree Days  
Heating Degree Days 1 6  
Month to date heating degree days 80 114  
Since 1 June heating degree days 423 578  
Since 1 July heating degree days 226 311  
Cooling Degree Days 0 0  
Month to date cooling degree days 0 0  
Year to date cooling degree days 12 0  
Since 1 June cooling degree days 0 0  
Growing Degree Days 13 (Base 50)    
Moisture  
Dew Point 60 °F    
Average Humidity 95    
Maximum Humidity 100    
Minimum Humidity 78    
Precipitation  
Precipitation 0.00 in 0.02 in 1.60 in (2007)
Month to date precipitation 0.01 0.30  
Year to date precipitation 22.44 36.92  
Sea Level Pressure  
Sea Level Pressure 29.93 in    
Wind  
Wind Speed 10 mph (North)    
Max Wind Speed 17 mph    
Max Gust Speed 25 mph    
Visibility 9 miles    
Events      
T = Trace of Precipitation, MM = Missing Value Source: NWS Daily Summary

Daily Weather History Graph

Daily Weather History Graph

Search for Another Location

Airport:

Trip Planner

Search our weather history database for the weather conditions in past years. The results will help you decide how hot, cold, wet, or windy it might be!

Date:

Astronomy

Aug. 19, 2014 Rise Set
Actual Time 6:26 AM PDT 8:13 PM PDT
Civil Twilight 5:56 AM PDT 8:44 PM PDT
Nautical Twilight 5:18 AM PDT 9:21 PM PDT
Astronomical Twilight 4:38 AM PDT 10:01 PM PDT
Moon 1:20 AM PDT (8/19) 4:18 PM PDT (8/19)
Length of Visible Light 14h 48m
Length of Day
13h 47m
Waning Crescent, 28% of the Moon is Illuminated
Aug 19
Waning Crescent
Aug 25
New
Sep 2
First Quarter
Sep 8
Full
Sep 15
Last Quarter

Hourly Weather History & Observations

Time (PDT) Temp. Dew Point Humidity Pressure Visibility Wind Dir Wind Speed Gust Speed Precip Events Conditions
12:15 AM 57.2 °F 57.2 °F 100% 29.91 in 5.0 mi NW 4.6 mph - N/A   Overcast
12:35 AM 57.2 °F 57.2 °F 100% 29.91 in 10.0 mi NW 4.6 mph - N/A   Overcast
12:55 AM 57.2 °F 57.2 °F 100% 29.91 in 10.0 mi NNW 5.8 mph - N/A   Overcast
1:15 AM 57.2 °F 57.2 °F 100% 29.92 in 5.0 mi NNW 4.6 mph - N/A   Overcast
1:35 AM 57.2 °F 57.2 °F 100% 29.91 in 3.0 mi North 3.5 mph - N/A   Overcast
1:55 AM 57.2 °F 57.2 °F 100% 29.91 in 3.0 mi North 5.8 mph - N/A   Overcast
2:15 AM 57.2 °F 57.2 °F 100% 29.90 in 7.0 mi North 4.6 mph - N/A   Overcast
2:35 AM 59.0 °F 59.0 °F 100% 29.91 in 10.0 mi North 6.9 mph - N/A   Overcast
2:55 AM 59.0 °F 59.0 °F 100% 29.91 in 10.0 mi North 8.1 mph - N/A   Overcast
3:15 AM 59.0 °F 59.0 °F 100% 29.91 in 10.0 mi North 10.4 mph - N/A   Overcast
3:35 AM 59.0 °F 59.0 °F 100% 29.92 in 10.0 mi North 6.9 mph - N/A   Overcast
3:55 AM 59.0 °F 59.0 °F 100% 29.91 in 10.0 mi North 10.4 mph - N/A   Overcast
4:15 AM 59.0 °F 59.0 °F 100% 29.92 in 10.0 mi North 10.4 mph - N/A   Overcast
4:35 AM 59.0 °F 59.0 °F 100% 29.91 in 10.0 mi North 9.2 mph - N/A   Overcast
4:55 AM 59.0 °F 59.0 °F 100% 29.92 in 10.0 mi NNE 10.4 mph - N/A   Overcast
5:15 AM 59.0 °F 59.0 °F 100% 29.92 in 10.0 mi North 10.4 mph 16.1 mph N/A   Overcast
5:35 AM 59.0 °F 57.2 °F 94% 29.91 in 10.0 mi North 9.2 mph - N/A   Overcast
5:55 AM 59.0 °F 57.2 °F 94% 29.92 in 10.0 mi North 9.2 mph - N/A   Overcast
6:15 AM 57.2 °F 57.2 °F 100% 29.92 in 7.0 mi NNE 8.1 mph - N/A   Overcast
6:35 AM 57.2 °F 57.2 °F 100% 29.92 in 10.0 mi NNE 3.5 mph - N/A   Overcast
6:55 AM 59.0 °F 57.2 °F 94% 29.92 in 10.0 mi NNE 6.9 mph - N/A   Overcast
7:15 AM 59.0 °F 59.0 °F 100% 29.92 in 10.0 mi North 11.5 mph - N/A   Overcast
7:35 AM 57.2 °F 57.2 °F 100% 29.93 in 10.0 mi NNE 11.5 mph - N/A   Overcast
7:55 AM 59.0 °F 57.2 °F 94% 29.93 in 10.0 mi NNE 9.2 mph - N/A   Overcast
8:15 AM 60.8 °F 59.0 °F 94% 29.93 in 10.0 mi NNE 6.9 mph - N/A   Overcast
8:35 AM 60.8 °F 60.8 °F 100% 29.94 in 9.0 mi NE 4.6 mph - N/A   Overcast
8:55 AM 60.8 °F 60.8 °F 100% 29.94 in 10.0 mi NE 3.5 mph - N/A   Overcast
9:15 AM 60.8 °F 60.8 °F 100% 29.94 in 10.0 mi ENE 3.5 mph - N/A   Overcast
9:35 AM 62.6 °F 60.8 °F 94% 29.94 in 10.0 mi NE 5.8 mph - N/A   Overcast
9:55 AM 64.4 °F 60.8 °F 88% 29.93 in 10.0 mi NNE 4.6 mph - N/A   Overcast
10:15 AM 64.4 °F 62.6 °F 94% 29.94 in 10.0 mi North 11.5 mph - N/A   Overcast
10:35 AM 64.4 °F 60.8 °F 88% 29.94 in 10.0 mi North 10.4 mph - N/A   Overcast
10:55 AM 64.4 °F 60.8 °F 88% 29.95 in 10.0 mi NNW 10.4 mph - N/A   Overcast
11:15 AM 64.4 °F 60.8 °F 88% 29.95 in 10.0 mi North 6.9 mph - N/A   Overcast
11:35 AM 62.6 °F 60.8 °F 94% 29.95 in 10.0 mi NNW 6.9 mph - N/A   Overcast
11:55 AM 64.4 °F 60.8 °F 88% 29.95 in 10.0 mi North 10.4 mph 16.1 mph N/A   Overcast
12:15 PM 64.4 °F 60.8 °F 88% 29.95 in 10.0 mi NNW 9.2 mph - N/A   Overcast
12:35 PM 64.4 °F 60.8 °F 88% 29.95 in 10.0 mi NNW 10.4 mph 16.1 mph N/A   Overcast
12:55 PM 66.2 °F 62.6 °F 88% 29.94 in 10.0 mi North 13.8 mph 17.3 mph N/A   Overcast
1:15 PM 68.0 °F 62.6 °F 83% 29.94 in 10.0 mi NNW 13.8 mph - N/A   Scattered Clouds
1:35 PM 66.2 °F 62.6 °F 88% 29.94 in 10.0 mi North 17.3 mph 20.7 mph N/A   Scattered Clouds
1:55 PM 66.2 °F 62.6 °F 88% 29.94 in 10.0 mi NNW 11.5 mph 17.3 mph N/A   Scattered Clouds
2:15 PM 68.0 °F 62.6 °F 83% 29.94 in 10.0 mi North 12.7 mph 20.7 mph N/A   Partly Cloudy
2:35 PM 66.2 °F 62.6 °F 88% 29.94 in 10.0 mi North 12.7 mph 19.6 mph N/A   Partly Cloudy
2:55 PM 66.2 °F 62.6 °F 88% 29.93 in 10.0 mi North 17.3 mph - N/A   Mostly Cloudy
3:35 PM 68.0 °F 60.8 °F 78% 29.92 in 10.0 mi North 16.1 mph 21.9 mph N/A   Mostly Cloudy
3:55 PM 69.8 °F 62.6 °F 78% 29.92 in 10.0 mi North 17.3 mph 21.9 mph N/A   Scattered Clouds
4:15 PM 68.0 °F 60.8 °F 78% 29.92 in 10.0 mi North 17.3 mph 24.2 mph N/A   Scattered Clouds
4:35 PM 66.2 °F 62.6 °F 88% 29.92 in 10.0 mi North 13.8 mph 21.9 mph N/A   Mostly Cloudy
4:55 PM 64.4 °F 62.6 °F 94% 29.92 in 10.0 mi North 17.3 mph 25.3 mph N/A   Overcast
5:15 PM 64.4 °F 62.6 °F 94% 29.92 in 10.0 mi North 16.1 mph 21.9 mph N/A   Overcast
5:35 PM 64.4 °F 62.6 °F 94% 29.93 in 10.0 mi North 15.0 mph 21.9 mph N/A   Overcast
5:55 PM 62.6 °F 62.6 °F 100% 29.92 in 10.0 mi North 16.1 mph 19.6 mph N/A   Overcast
6:15 PM 64.4 °F 62.6 °F 94% 29.92 in 10.0 mi North 13.8 mph - N/A   Overcast
6:35 PM 62.6 °F 62.6 °F 100% 29.93 in 10.0 mi North 11.5 mph - N/A   Overcast
6:55 PM 60.8 °F 60.8 °F 100% 29.93 in 10.0 mi North 12.7 mph - N/A   Overcast
7:55 PM 60.8 °F 60.8 °F 100% 29.93 in 10.0 mi North 10.4 mph - N/A   Overcast
8:15 PM 60.8 °F 60.8 °F 100% 29.94 in 10.0 mi NNW 10.4 mph - N/A   Overcast
8:35 PM 60.8 °F 60.8 °F 100% 29.95 in 3.0 mi North 8.1 mph - N/A   Overcast
8:55 PM 60.8 °F 60.8 °F 100% 29.95 in 3.0 mi North 9.2 mph - N/A   Overcast
9:15 PM 60.8 °F 60.8 °F 100% 29.95 in 5.0 mi North 5.8 mph - N/A   Overcast
9:35 PM 60.8 °F 60.8 °F 100% 29.95 in 4.0 mi NNW 4.6 mph - N/A   Overcast
9:55 PM 60.8 °F 60.8 °F 100% 29.95 in 4.0 mi NW 4.6 mph - N/A   Overcast
10:15 PM 60.8 °F 60.8 °F 100% 29.95 in 8.0 mi NNW 4.6 mph - N/A   Overcast
10:35 PM 60.8 °F 60.8 °F 100% 29.95 in 9.0 mi Calm Calm - N/A   Overcast
10:55 PM 60.8 °F 60.8 °F 100% 29.95 in 10.0 mi NW 4.6 mph - N/A   Overcast
11:15 PM 60.8 °F 60.8 °F 100% 29.95 in 10.0 mi NW 3.5 mph - N/A   Overcast
11:35 PM 60.8 °F 60.8 °F 100% 29.94 in 9.0 mi North 5.8 mph - N/A   Overcast
11:55 PM 60.8 °F 60.8 °F 100% 29.95 in 4.0 mi NNW 5.8 mph - N/A   Overcast